Tracking 18980 objects as of 23-Feb-2018
HD Live streaming from Space Station
objects crossing your sky now

COSMOS 766

Track COSMOS 766 now!
10-day predictions
COSMOS 766 is classified as:


NORAD ID: 8290
Int'l Code: 1975-086F
Perigee: 1,425.2 km
Apogee: 1,490.9 km
Inclination: 74.0 °
Period: 114.9 minutes
Semi major axis: 7829 km
RCS: 0.694 m2 (medium)
Launch date: September 17, 1975
Source: Commonwealth of Independent States (former USSR) (CIS)
Launch site: PLESETSK MISSILE AND SPACE COMPLEX (PKMTR)
aabbcc
Your satellite tracking list
Your tracking list is empty




NASA's NSSDC Master Catalog

Two Line Element Set (TLE):
1  8290U 75086F   18053.55458917 -.00000011 +00000-0 +30599-4 0  9999
2  8290 074.0063 248.1560 0041978 119.5765 270.8141 12.53249968941354
Source of the keplerian elements: AFSPC